Regional Weather Roundup
Issued by NWS

Home | Current Version | Previous Version | Graphics & Text | Print | Product List | Glossary On
Versions: 1 2 3 4 5 6 7 8 9 10 11 12 13 14 15 16 17 18 19 20 21 22 23 24 25 26 27 28 29 30 31 32 33 34 35 36 37 38 39 40 41 42 43 44 45 46 47 48 49 50
000
ASUS43 KDMX 300307
RWRIA

WEATHER ROUNDUP FOR IOWA
NATIONAL WEATHER SERVICE DES MOINES IA
1000 PM CDT WED JUL 29 2015

NOTE: "FAIR" INDICATES FEW OR NO CLOUDS BELOW 12,000 FEET WITH NO
SIGNIFICANT WEATHER AND/OR OBSTRUCTIONS TO VISIBILITY.

* - THESE STATIONS ARE NOT NWS STATIONS...THUS NOT UNDER NWS
QUALITY CONTROL.  THEY ALSO DO NOT REPORT WEATHER SUCH
AS PRECIPITATION OR FOG.

IAZ001>003-012>014-020>022-031>034-043>046-300400-
   NORTHWEST IOWA

CITY           SKY/WX    TMP DP  RH WIND       PRES   REMARKS
CARROLL *      CLEAR     68  63  83 SW7       30.12R
CHEROKEE *     CLEAR     68  64  88 S3        30.11R
DENISON *      CLEAR     68  61  77 CALM      30.12R
LE MARS *      CLEAR     68  63  83 S5        30.11R
ORANGE CITY *  CLEAR     64  59  82 W6        30.11R
SHELDON *      CLEAR     63  61  94 CALM      30.09R
SIOUX CITY     CLEAR     70  62  76 SW6       30.11R
SPENCER        CLEAR     66  60  81 W9        30.10R
STORM LAKE *   CLEAR     66  61  82 SW6       30.12R
$$

IAZ055>058-069>071-079>083-090>094-300400-
   SOUTHWEST IOWA

CITY           SKY/WX    TMP DP  RH WIND       PRES   REMARKS
ATLANTIC *     CLEAR     68  66  94 S3        30.15R
AUDUBON *      CLEAR     66  63  88 CALM      30.15R
CLARINDA *     CLEAR     68  68 100 CALM      30.18R
COUNCIL BLFS *   N/A     72  61  68 SW6       30.16R
CRESTON *      CLEAR     70  63  78 SW6       30.16R
HARLAN  *      CLEAR     68  68 100 S5        30.18R
LAMONI         CLEAR     71  63  75 W5        30.16R
RED OAK *      CLEAR     68  66  94 CALM      30.16R
SHENANDOAH *   CLEAR     68  66  94 CALM      30.16R
$$

IAZ047>049-059>061-072>074-084-300400-
   CENTRAL IOWA

CITY           SKY/WX    TMP DP  RH WIND       PRES   REMARKS
AMES           CLEAR     66  62  87 SW8       30.10R
ANKENY *       CLEAR     72  63  73 SW6       30.11R
CHARITON *     CLEAR     70  61  73 SW6       30.15R
DES MOINES     CLEAR     73  61  65 SW7       30.12R
GRINNELL*      CLEAR     66  61  82 SW8       30.12R
KNOXVILLE *    CLEAR     70  61  73 SW7       30.12R
MARSHALLTOWN   CLEAR     66  61  84 SW5       30.09R
PELLA *        CLEAR     70  64  83 W3        30.13R
PERRY *          N/A     66  63  88 SW6       30.12R
$$

IAZ004>006-015-016-023>025-035-036-300400-
   NORTH CENTRAL IOWA

CITY           SKY/WX    TMP DP  RH WIND       PRES   REMARKS
ALGONA *       CLEAR     68  61  77 SW8       30.09R
CLARION *      CLEAR     63  61  94 SW7       30.09R
ESTHERVILLE    CLEAR     63  60  90 W6        30.08R
FORT DODGE *   CLEAR     66  59  77 SW5       30.11R
MASON CITY     CLEAR     71  60  68 W10       30.08R
FOREST CITY *  CLEAR     66  59  77 CALM      30.07R
IOWA FALLS *     N/A     66  61  82 SW7       30.10R
$$

IAZ007>011-017>019-026>030-037>042-050>054-066-300400-
   NORTHEAST IOWA

CITY           SKY/WX    TMP DP  RH WIND       PRES   REMARKS
CEDAR RAPIDS   CLEAR     67  63  87 SW7       30.08R
CHARLES CITY * CLEAR     68  61  77 W6        30.07R
CLINTON *      CLEAR     64  57  77 W7        30.09R
DECORAH *      CLEAR     70  59  68 VRB3G12   30.04R
DUBUQUE        CLEAR     66  59  78 MISG      30.06R
MONTICELLO *   CLEAR     64  63  94 CALM      30.07R
OELWEIN *      CLEAR     66  61  82 W7        30.07R
WATERLOO       CLEAR     70  59  68 W7        30.06R
$$

IAZ064-065-067-068-078-300400-
   EAST CENTRAL IOWA

CITY           SKY/WX    TMP DP  RH WIND       PRES   REMARKS
DAVENPORT      CLEAR     68  60  75 W8        30.08R
IOWA CITY      CLEAR     69  61  75 W7        30.10R
MT. PLEASANT * CLEAR     70  61  73 W5        30.12R
MUSCATINE *    CLEAR     70  61  73 W8        30.09R
QUAD CITIES    CLEAR     69  61  75 SW5       30.07R
$$

IAZ062-063-075>077-085>089-095>099-300400-
   SOUTHEAST IOWA

CITY           SKY/WX    TMP DP  RH WIND       PRES   REMARKS
BURLINGTON     CLEAR     70  63  78 W3        30.10R
FAIRFIELD *    CLEAR     68  63  83 W5        30.12R
FORT MADISON * CLEAR     72  63  73 W3        30.12R
KEOKUK *       CLEAR     72  64  78 W5        30.11R
OSKALOOSA *      N/A     66  63  88 W5        30.12R
CENTERVILLE *  CLEAR     68  63  83 W5        30.16R
OTTUMWA        CLEAR     68  63  84 W6        30.11R
WASHINGTON *   CLEAR     68  63  83 W3        30.12R
$$

ABBREVIATIONS USED IN REMARKS
   TC - TEMPERATURES IN CELSIUS
  WCI - WIND CHILL INDEX
   HX - HEAT INDEX
  VSB - VISIBILITY
$$



USA.gov is the U.S. government's official web portal to all federal, state and local government web resources and services.